Tracking 27107 objects as of 20-Mar-2023
HD Live streaming from Space Station
objects crossing your sky now

OPS 4029

Track OPS 4029 now!
OPS 4029 is classified as:


NORAD ID: 12930
Int'l Code: 1981-107A
Perigee: 32,117.8 km
Apogee: 39,493.7 km
Inclination: 6.6 °
Period: 1,436.7 minutes
Semi major axis: 42176 km
RCS: Unknown
Launch date: October 31, 1981
Source: United States (US)
Launch site: AIR FORCE EASTERN TEST RANGE (AFETR)
Your satellite tracking list
Your tracking list is empty




NASA's NSSDC Master Catalog

Two Line Element Set (TLE):
1 12930U 81107A   21127.48908885 0.00000000  00000-0  00000-0 0    08
2 12930   6.5792 352.1789 0874397 358.6499   1.1344  1.00229014    05
Source of the keplerian elements: McCants